Flag for U.S.A. Weather past 2 weeks in Fullerton, California, U.S.A.

Now
94 °F

Sunny.


Feels Like: 92 °F
Forecast: 70 / 95 °F
Wind: 7 mph from West

Location: Fullerton Municipal Airport

Current Time: Aug 28, 2015 at 6:25:53 PM

Latest Report: Aug 28, 2015 at 5:53 PM


Visibility: 10 mi

Pressure: 29.79 "Hg

Humidity: 26%

Dew point: 54 °F

Location of FullertonLocation

Historic Weather in Fullerton — Graph

°F

Fullerton temperature yesterday

Maximum temperature yesterday: 95 °F (at 2:53 PM)
Minimum temperature yesterday: 72 °F (at 3:53 AM)
Average temperature yesterday: 83 °F

Past Weeks' High & Low Weather Summary

 TemperatureHumidityPressure
High101 °F (Aug 15, 3:53 PM)87% (Aug 23, 6:53 AM)29.97 "Hg (Aug 23, 6:53 AM)
Low67 °F (Aug 23, 4:53 AM)16% (Aug 15, 3:53 PM)29.77 "Hg (Aug 16, 5:53 PM)
Average78 °F62%29.88 "Hg
* Reported Aug 13 4:53 PM — Aug 28 4:53 PM, Fullerton, Weather by CustomWeather, © 2015

Note: Actual official high and low records may vary slightly from our data, if they occured in-between our weather recording intervals... More about our weather records

Advertising

Fullerton weather history for previous 24 hours

 ConditionsComfort  
Time TempWeatherWind HumidityBarometerVisibility
4:53 PM
Fri, Aug 28
93 °FSunny.8 mph26%29.79 "Hg10 mi
3:53 PM94 °FSunny.9 mph29%29.80 "Hg10 mi
2:53 PM97 °FSunny.7 mph23%29.81 "Hg10 mi
1:53 PM98 °FSunny.8 mph22%29.82 "Hg10 mi
12:53 PM97 °FSunny.N/A24%29.84 "Hg10 mi
11:53 AM97 °FSunny.5 mph24%29.86 "Hg10 mi
10:53 AM92 °FSunny.3 mph33%29.88 "Hg10 mi
9:53 AM87 °FSunny.No wind43%29.88 "Hg10 mi
8:53 AM82 °FSunny.No wind55%29.88 "Hg10 mi
7:53 AM78 °FSunny.No wind64%29.88 "Hg10 mi
5:53 AM74 °FClear.No wind82%29.87 "Hg10 mi
4:53 AM74 °FClear.No wind82%29.87 "Hg10 mi
3:53 AM74 °FClear.No wind82%29.87 "Hg10 mi
2:53 AM75 °FClear.No wind79%29.87 "Hg10 mi
1:53 AM75 °FClear.No wind76%29.88 "Hg10 mi
12:53 AM76 °FClear.No wind74%29.89 "Hg10 mi
11:53 PM
Thu, Aug 27
76 °FClear.3 mph74%29.90 "Hg10 mi
10:53 PM77 °FClear.3 mph69%29.90 "Hg10 mi
9:53 PM78 °FClear.5 mph69%29.90 "Hg10 mi
8:53 PM81 °FClear.5 mph58%29.88 "Hg10 mi
7:53 PM86 °FSunny.3 mph37%29.86 "Hg10 mi
6:53 PM90 °FSunny.6 mph28%29.84 "Hg10 mi
Weather by CustomWeather, © 2015

See weather overviewHow to use our weather pages